Terminal Aerodrome Forecast
Issued by NWS Upton, NY

Current Version | Previous Version | Text Only | Print | Product List | Glossary On
Versions: 1 2 3 4 5 6 7 8 9 10 11 12 13 14 15 16 17 18 19 20 21 22 23 24 25 26 27
000 FTUS41 KOKX 070535 TAFJFK TAF KJFK 070535Z 0706/0812 14006KT P6SM BKN008 OVC015 FM070800 16005KT 4SM BR BKN007 FM071200 18009KT 4SM BR SCT008 BKN015 BKN150 FM071400 18012KT 6SM HZ VCSH SCT015 BKN050 FM072000 18014KT P6SM BKN050 FM080200 21010KT P6SM SCT050 BKN250=

USA.gov is the U.S. government's official web portal to all federal, state and local government web resources and services.